,,PressureMeas_1m,,PRMeasQMR101_1,,RHStat155_1m_1,,SRMeasQMS101R_1m,,TAStat155_1m_1,,GenWind_1,,GenWind_1,
2017-08-17, 07:00:07,VALID,916.683,VALID,0.0,VALID,94.644,VALID,34.121,VALID,19.41,VALID,124.0,VALID,0.653,
2017-08-17, 07:01:07,VALID,916.681,VALID,0.0,VALID,94.602,VALID,35.805,VALID,19.406,VALID,127.0,VALID,0.596,
2017-08-17, 07:02:07,VALID,916.689,VALID,0.0,VALID,94.833,VALID,37.285,VALID,19.401,VALID,125.0,VALID,0.598,
2017-08-17, 07:03:07,VALID,916.689,VALID,0.0,VALID,95.286,VALID,38.684,VALID,19.394,VALID,128.0,VALID,0.519,
2017-08-17, 07:04:07,VALID,916.694,VALID,0.0,VALID,95.43,VALID,40.186,VALID,19.373,VALID,133.0,VALID,0.527,
2017-08-17, 07:05:07,VALID,916.708,VALID,0.0,VALID,95.626,VALID,41.754,VALID,19.372,VALID,122.0,VALID,0.412,
2017-08-17, 07:06:07,VALID,916.728,VALID,0.0,VALID,95.852,VALID,43.086,VALID,19.389,VALID,131.0,VALID,0.526,
2017-08-17, 07:07:07,VALID,916.761,VALID,0.0,VALID,95.712,VALID,43.76,VALID,19.402,VALID,112.0,VALID,0.299,
2017-08-17, 07:08:07,VALID,916.783,VALID,0.0,VALID,95.442,VALID,43.729,VALID,19.412,VALID,125.0,VALID,0.768,
2017-08-17, 07:09:07,VALID,916.803,VALID,0.0,VALID,94.707,VALID,43.779,VALID,19.431,VALID,122.0,VALID,0.62,
2017-08-17, 07:10:07,VALID,916.809,VALID,0.0,VALID,94.686,VALID,44.646,VALID,19.471,VALID,125.0,VALID,0.386,
2017-08-17, 07:11:07,VALID,916.793,VALID,0.0,VALID,94.402,VALID,46.462,VALID,19.506,VALID,131.0,VALID,0.621,
2017-08-17, 07:12:07,VALID,916.801,VALID,0.0,VALID,94.331,VALID,48.816,VALID,19.556,VALID,138.0,VALID,0.284,
2017-08-17, 07:13:07,VALID,916.798,VALID,0.0,VALID,94.374,VALID,51.515,VALID,19.573,VALID,128.0,VALID,0.543,
2017-08-17, 07:14:07,VALID,916.78,VALID,0.0,VALID,93.994,VALID,54.497,VALID,19.59,VALID,117.0,VALID,0.574,
2017-08-17, 07:15:07,VALID,916.761,VALID,0.0,VALID,94.398,VALID,57.697,VALID,19.628,VALID,108.0,VALID,0.406,
2017-08-17, 07:16:07,VALID,916.75,VALID,0.0,VALID,94.884,VALID,60.945,VALID,19.661,VALID,103.0,VALID,0.382,
2017-08-17, 07:17:07,VALID,916.72,VALID,0.0,VALID,94.93,VALID,64.054,VALID,19.665,VALID,102.0,VALID,0.56,
2017-08-17, 07:18:07,VALID,916.714,VALID,0.0,VALID,94.833,VALID,67.134,VALID,19.661,VALID,125.0,VALID,0.769,
2017-08-17, 07:19:07,VALID,916.712,VALID,0.0,VALID,94.659,VALID,70.408,VALID,19.655,VALID,125.0,VALID,0.734,
2017-08-17, 07:20:07,VALID,916.707,VALID,0.0,VALID,94.545,VALID,73.947,VALID,19.649,VALID,124.0,VALID,1.178,
2017-08-17, 07:21:07,VALID,916.698,VALID,0.0,VALID,94.592,VALID,77.483,VALID,19.642,VALID,126.0,VALID,1.122,
2017-08-17, 07:22:07,VALID,916.704,VALID,0.0,VALID,94.519,VALID,81.073,VALID,19.627,VALID,124.0,VALID,1.464,
2017-08-17, 07:23:07,VALID,916.721,VALID,0.0,VALID,94.567,VALID,84.657,VALID,19.633,VALID,129.0,VALID,1.258,
2017-08-17, 07:24:07,VALID,916.736,VALID,0.0,VALID,94.385,VALID,88.042,VALID,19.626,VALID,137.0,VALID,1.43,
2017-08-17, 07:25:07,VALID,916.761,VALID,0.0,VALID,94.269,VALID,91.039,VALID,19.615,VALID,141.0,VALID,1.598,
2017-08-17, 07:26:07,VALID,916.792,VALID,0.0,VALID,94.07,VALID,93.738,VALID,19.576,VALID,143.0,VALID,1.898,
2017-08-17, 07:27:07,VALID,916.789,VALID,0.0,VALID,94.009,VALID,96.439,VALID,19.544,VALID,141.0,VALID,1.883,
2017-08-17, 07:28:07,VALID,916.819,VALID,0.0,VALID,94.02,VALID,99.312,VALID,19.558,VALID,137.0,VALID,1.786,
2017-08-17, 07:29:07,VALID,916.83,VALID,0.0,VALID,93.835,VALID,102.428,VALID,19.586,VALID,140.0,VALID,1.849,
2017-08-17, 07:30:07,VALID,916.845,VALID,0.0,VALID,93.576,VALID,105.746,VALID,19.611,VALID,138.0,VALID,1.87,
2017-08-17, 07:31:07,VALID,916.844,VALID,0.0,VALID,93.299,VALID,109.118,VALID,19.626,VALID,149.0,VALID,1.82,
2017-08-17, 07:32:07,VALID,916.85,VALID,0.0,VALID,93.73,VALID,112.695,VALID,19.586,VALID,150.0,VALID,1.633,
2017-08-17, 07:33:07,VALID,916.844,VALID,0.0,VALID,93.81,VALID,116.254,VALID,19.552,VALID,152.0,VALID,1.887,
2017-08-17, 07:34:07,VALID,916.876,VALID,0.0,VALID,93.849,VALID,119.786,VALID,19.55,VALID,149.0,VALID,1.611,
2017-08-17, 07:35:07,VALID,916.896,VALID,0.0,VALID,94.1,VALID,122.64,VALID,19.561,VALID,151.0,VALID,1.504,
2017-08-17, 07:36:07,VALID,916.917,VALID,0.0,VALID,93.83,VALID,124.228,VALID,19.614,VALID,150.0,VALID,1.5,
2017-08-17, 07:37:07,VALID,916.934,VALID,0.0,VALID,92.397,VALID,124.439,VALID,19.718,VALID,144.0,VALID,1.43,
2017-08-17, 07:38:07,VALID,916.962,VALID,0.0,VALID,92.139,VALID,123.681,VALID,19.845,VALID,148.0,VALID,1.251,
2017-08-17, 07:39:07,VALID,916.99,VALID,0.0,VALID,91.2,VALID,122.871,VALID,19.938,VALID,151.0,VALID,1.26,
2017-08-17, 07:40:07,VALID,917.013,VALID,0.0,VALID,90.955,VALID,123.84,VALID,20.013,VALID,143.0,VALID,1.081,
2017-08-17, 07:41:07,VALID,917.027,VALID,0.0,VALID,90.367,VALID,127.149,VALID,20.074,VALID,143.0,VALID,0.963,
2017-08-17, 07:42:07,VALID,917.021,VALID,0.0,VALID,90.299,VALID,132.276,VALID,20.13,VALID,144.0,VALID,0.899,
2017-08-17, 07:43:07,VALID,917.006,VALID,0.0,VALID,90.614,VALID,138.621,VALID,20.187,VALID,130.0,VALID,0.999,
2017-08-17, 07:44:07,VALID,916.978,VALID,0.0,VALID,89.924,VALID,145.669,VALID,20.258,VALID,121.0,VALID,1.011,
2017-08-17, 07:45:07,VALID,916.964,VALID,0.0,VALID,90.012,VALID,153.296,VALID,20.32,VALID,123.0,VALID,1.177,
2017-08-17, 07:46:07,VALID,916.964,VALID,0.0,VALID,89.573,VALID,160.816,VALID,20.41,VALID,123.0,VALID,0.689,
2017-08-17, 07:47:07,VALID,916.96,VALID,0.0,VALID,89.751,VALID,167.54,VALID,20.493,VALID,124.0,VALID,1.015,
2017-08-17, 07:48:07,VALID,916.981,VALID,0.0,VALID,87.988,VALID,173.914,VALID,20.573,VALID,129.0,VALID,0.783,
2017-08-17, 07:49:07,VALID,916.978,VALID,0.0,VALID,88.155,VALID,177.879,VALID,20.64,VALID,129.0,VALID,0.976,
2017-08-17, 07:50:07,VALID,916.976,VALID,0.0,VALID,87.446,VALID,182.058,VALID,20.687,VALID,118.0,VALID,1.18,
2017-08-17, 07:51:07,VALID,916.994,VALID,0.0,VALID,87.028,VALID,185.774,VALID,20.731,VALID,119.0,VALID,1.127,
2017-08-17, 07:52:07,VALID,917.0,VALID,0.0,VALID,87.191,VALID,189.502,VALID,20.763,VALID,109.0,VALID,0.996,
2017-08-17, 07:53:07,VALID,917.003,VALID,0.0,VALID,87.418,VALID,192.991,VALID,20.788,VALID,104.0,VALID,1.03,
2017-08-17, 07:54:07,VALID,917.03,VALID,0.0,VALID,86.416,VALID,196.399,VALID,20.794,VALID,106.0,VALID,1.201,
2017-08-17, 07:55:07,VALID,917.02,VALID,0.0,VALID,86.202,VALID,200.936,VALID,20.802,VALID,113.0,VALID,1.299,
2017-08-17, 07:56:07,VALID,917.032,VALID,0.0,VALID,86.637,VALID,204.778,VALID,20.809,VALID,109.0,VALID,1.482,
2017-08-17, 07:57:07,VALID,917.028,VALID,0.0,VALID,86.962,VALID,207.039,VALID,20.835,VALID,123.0,VALID,1.386,
2017-08-17, 07:58:07,VALID,917.034,VALID,0.0,VALID,87.269,VALID,207.999,VALID,20.881,VALID,128.0,VALID,0.928,
2017-08-17, 07:59:07,VALID,917.044,VALID,0.0,VALID,87.384,VALID,208.972,VALID,20.907,VALID,152.0,VALID,1.339,
2017-08-17, 08:00:07,VALID,917.061,VALID,0.0,VALID,86.894,VALID,210.509,VALID,20.841,VALID,153.0,VALID,1.236,
2017-08-17, 08:01:07,VALID,917.085,VALID,0.0,VALID,88.48,VALID,212.748,VALID,20.786,VALID,144.0,VALID,1.632,
2017-08-17, 08:02:07,VALID,917.098,VALID,0.0,VALID,88.415,VALID,215.333,VALID,20.729,VALID,140.0,VALID,1.709,
2017-08-17, 08:03:07,VALID,917.122,VALID,0.0,VALID,88.307,VALID,218.219,VALID,20.714,VALID,137.0,VALID,1.676,
2017-08-17, 08:04:06,VALID,917.137,VALID,0.0,VALID,88.124,VALID,221.284,VALID,20.7,VALID,140.0,VALID,1.64,
2017-08-17, 08:05:06,VALID,917.15,VALID,0.0,VALID,89.548,VALID,224.758,VALID,20.696,VALID,140.0,VALID,1.611,
2017-08-17, 08:06:06,VALID,917.157,VALID,0.0,VALID,89.731,VALID,228.291,VALID,20.66,VALID,137.0,VALID,1.589,
2017-08-17, 08:07:06,VALID,917.165,VALID,0.0,VALID,89.288,VALID,231.5,VALID,20.624,VALID,134.0,VALID,1.596,
2017-08-17, 08:08:06,VALID,917.157,VALID,0.0,VALID,89.348,VALID,234.143,VALID,20.683,VALID,134.0,VALID,1.656,
2017-08-17, 08:09:06,VALID,917.157,VALID,0.0,VALID,88.709,VALID,235.665,VALID,20.785,VALID,140.0,VALID,1.503,
2017-08-17, 08:10:06,VALID,917.168,VALID,0.0,VALID,88.1,VALID,236.21,VALID,20.854,VALID,143.0,VALID,1.623,
2017-08-17, 08:11:06,VALID,917.175,VALID,0.0,VALID,87.342,VALID,236.417,VALID,20.911,VALID,145.0,VALID,1.693,
2017-08-17, 08:12:06,VALID,917.164,VALID,0.0,VALID,86.674,VALID,236.939,VALID,20.926,VALID,144.0,VALID,1.833,
2017-08-17, 08:13:06,VALID,917.166,VALID,0.0,VALID,85.924,VALID,239.107,VALID,20.899,VALID,145.0,VALID,1.925,
2017-08-17, 08:14:06,VALID,917.147,VALID,0.0,VALID,86.525,VALID,242.708,VALID,20.878,VALID,147.0,VALID,1.939,
2017-08-17, 08:15:06,VALID,917.143,VALID,0.0,VALID,86.598,VALID,247.152,VALID,20.865,VALID,146.0,VALID,1.964,
2017-08-17, 08:16:06,VALID,917.139,VALID,0.0,VALID,87.699,VALID,252.352,VALID,20.858,VALID,147.0,VALID,1.679,
2017-08-17, 08:17:06,VALID,917.157,VALID,0.0,VALID,87.973,VALID,258.608,VALID,20.904,VALID,150.0,VALID,1.387,
2017-08-17, 08:18:06,VALID,917.177,VALID,0.0,VALID,88.09,VALID,262.142,VALID,20.964,VALID,146.0,VALID,1.592,
2017-08-17, 08:19:06,VALID,917.193,VALID,0.0,VALID,86.838,VALID,254.722,VALID,21.045,VALID,129.0,VALID,1.358,
2017-08-17, 08:20:06,VALID,917.204,VALID,0.0,VALID,87.641,VALID,251.699,VALID,21.156,VALID,153.0,VALID,1.171,
2017-08-17, 08:21:06,VALID,917.216,VALID,0.0,VALID,87.489,VALID,252.347,VALID,21.222,VALID,147.0,VALID,1.286,
2017-08-17, 08:22:06,VALID,917.216,VALID,0.0,VALID,87.354,VALID,254.435,VALID,21.273,VALID,149.0,VALID,1.139,
2017-08-17, 08:23:06,VALID,917.226,VALID,0.0,VALID,87.774,VALID,257.151,VALID,21.355,VALID,120.0,VALID,0.756,
2017-08-17, 08:24:06,VALID,917.228,VALID,0.0,VALID,87.134,VALID,260.325,VALID,21.446,VALID,154.0,VALID,0.769,
2017-08-17, 08:25:06,VALID,917.26,VALID,0.0,VALID,85.499,VALID,264.124,VALID,21.494,VALID,133.0,VALID,1.394,
